STARLINK-4394, 53467

Orbit data source: Space-Track

STARLINK-4394, 53467 is a payload satellite owned by SpaceX/Seattle (US) in SSO that was launched on Fri, 12 Aug 2022 UTC via an FALCON 9 launch vehicle from the Air Force Western Test Range (AFWTR). Payload-class satellites include a variety of spacecraft equipped with specific instruments for various scientific and technological missions. These include communications satellites like Starlink; space stations such as the ISS; scientific satellites like the Hubble; Earth observation satellites from companies like Planet Labs, Umbra, and HawkEye 360; GPS; miniature CubeSats for education and research; and military/defense satellites.

Loading next visibility...
Identifier
53467, 2022-099C
Orbit
SSO
Country
Flag of USUS
Related business
Manufacturer
SpaceX/Seattle
Mission
Operational Commercial Communications
Bus & Motor
STARLINK, Unknown motor
Mass
300 kg wet, ~275 kg dry
Launch date (UTC)
2022-08-12 (3 years ago)
Launch vehicle
FALCON 9
Launch site
Air Force Western Test Range (AFWTR)
Object type
Payload
Rocket body
Debris
Shape & HBR
Box + 1 Pan, 10.1 m
Radar Cross Section
13.562 m², Large (>1 m²)

Expand to show TLE details & history
Last TLE update: 9 hours ago

TLE from 9 hours ago
0 STARLINK-4394
1 53467U 22099C   25293.58912548 -.00001897  00000-0 -12736-3 0  9999
2 53467  97.6037  53.1771 0001514  91.2978 268.8423 15.05626983174965
Epoch: 2025-10-20T14:08Z
TLE epoch observation values (Epoch: 2025-10-20T14:08:20.441Z)
Latitude
0.00006°
Longitude
171.80265°
Altitude
552.668 km
Speed
7.585 km/s
True Right ascension
03h 32m 42s
True Declination
0° 00' 00"
Sunlit
Object was in full shadow at epoch
Visualization orbit readout
Latitude
Unknown
Longitude
Unknown
Altitude
Unknown
Speed
Unknown
Apparent Right ascension
Unknown
Apparent Declination
Unknown
Sunlit
N/A
Visualization observer readout
Local Sidereal Time
18:16:01
Azimuth
Unknown
Elevation
Unknown
Doppler factor
Unknown
Orbital elements
Apogee altitude
547.624 km
Perigee altitude
545.527 km
Semi-major axis
6,924.712 km
Eccentricity
0.00015
Inclination
97.6037°
RAAN
53.1771°
Arg. of periapsis
91.2978°
True anomaly
268.82495°
Mean anomaly
268.8423°
Eccentric anomaly
268.83363°
Mean motion
3.76652 °/min
Orbital period
95.58 mins
BSTAR
-0.00012736
Loading maneuver chart data...
Computing Atmospheric mass density...
Loading historical data...
Loading historical data...
Loading historical data...
Loading historical data...
Loading historical data...
Loading historical data...
Loading historical data...

Documentation

Showing up to 5 results
|